CW0641 Weather Reports


Display with metric or nautical units.
time (UTC)temp
F
wind
direction
speed
MPH
gust
MPH
rain 1hr
in
rain 24hr
in
rain mn
in
humidity
%
barometer
mb
20260504000011 51 261 7.0 13.0 0.00 0.00 0.00 88 1012.9
20260503235507 51 290 7.0 13.0 0.00 0.00 0.00 88 1012.9
20260503235008 51 302 6.0 12.0 0.00 0.00 0.00 88 1013.0
20260503234511 51 313 7.0 13.0 0.00 0.00 0.00 88 1012.9
20260503233008 51 265 9.0 15.0 0.00 0.00 0.00 89 1012.8
20260503232509 51 257 9.0 17.0 0.00 0.00 0.00 89 1012.8
20260503232002 52 288 10.0 17.0 0.00 0.00 0.00 89 1012.6
20260503231501 52 294 11.0 19.0 0.00 0.00 0.00 90 1012.9
20260503231004 52 335 11.0 19.0 0.00 0.00 0.00 90 1012.9
20260503230504 52 271 9.0 19.0 0.00 0.00 0.00 90 1012.8
20260503230001 53 325 9.0 17.0 0.00 0.00 0.00 90 1012.9
20260503225504 53 325 10.0 17.0 0.00 0.00 0.00 90 1012.8
20260503225001 53 331 10.0 16.0 0.00 0.00 0.00 90 1012.8
20260503224454 53 337 10.0 19.0 0.00 0.00 0.00 90 1012.6
20260503223955 53 334 11.0 19.0 0.00 0.00 0.00 89 1012.8
20260503222449 54 304 9.0 16.0 0.00 0.00 0.00 89 1012.6
20260503221950 54 297 9.0 16.0 0.00 0.00 0.00 89 1012.8
20260503221443 54 305 9.0 18.0 0.00 0.00 0.00 88 1012.9
20260503220946 54 284 10.0 19.0 0.00 0.00 0.00 88 1013.0
20260503220447 54 319 10.0 20.0 0.00 0.00 0.00 87 1013.2
20260503215946 54 277 10.0 20.0 0.00 0.00 0.00 87 1013.1
20260503215443 54 344 10.0 18.0 0.00 0.00 0.00 87 1013.2
20260503214945 54 221 9.0 16.0 0.00 0.00 0.00 87 1013.3
20260503213944 54 313 10.0 22.0 0.00 0.00 0.00 86 1013.2
20260503213443 54 315 9.0 22.0 0.00 0.00 0.00 86 1013.2
20260503212944 54 300 10.0 18.0 0.00 0.00 0.00 86 1013.1
20260503212442 54 302 11.0 19.0 0.00 0.00 0.00 86 1013.1
20260503211945 54 340 9.0 19.0 0.00 0.00 0.00 86 1013.2
20260503211442 54 315 8.0 14.0 0.00 0.00 0.00 86 1013.2
20260503210942 54 322 8.0 15.0 0.00 0.00 0.00 86 1013.3
20260503210442 54 264 9.0 15.0 0.00 0.00 0.00 86 1013.2
20260503205942 54 299 9.0 20.0 0.00 0.00 0.00 86 1013.2
20260503204942 54 344 9.0 16.0 0.00 0.00 0.00 87 1013.3
20260503204442 54 267 9.0 18.0 0.00 0.00 0.00 87 1013.2
20260503203445 54 275 9.0 20.0 0.00 0.00 0.00 87 1013.4
20260503202944 54 281 10.0 20.0 0.00 0.00 0.00 87 1013.3
20260503202440 54 273 10.0 18.0 0.00 0.00 0.00 86 1013.2
20260503201939 54 338 10.0 19.0 0.00 0.00 0.00 86 1013.2
20260503200941 54 313 10.0 18.0 0.00 0.00 0.00 87 1013.2
20260503200438 54 295 10.0 18.0 0.00 0.00 0.00 87 1013.2
20260503195436 54 321 11.0 22.0 0.00 0.00 0.00 87 1013.2
20260503194933 54 344 10.0 19.0 0.00 0.00 0.00 87 1013.3
20260503194433 55 295 11.0 22.0 0.00 0.00 0.00 87 1013.2
20260503193930 55 282 12.0 22.0 0.00 0.00 0.00 87 1013.1
20260503192932 55 281 11.0 21.0 0.00 0.00 0.00 88 1013.2
20260503191929 55 311 11.0 19.0 0.00 0.00 0.00 87 1013.0
20260503191426 55 267 9.0 18.0 0.00 0.00 0.00 88 1013.0
20260503190927 55 279 10.0 22.0 0.00 0.00 0.00 88 1013.0
20260503190428 55 273 11.0 22.0 0.00 0.00 0.00 88 1012.9
20260503185927 55 321 13.0 27.0 0.00 0.00 0.00 88 1012.5
20260503185426 55 320 13.0 27.0 0.00 0.00 0.00 88 1012.6
20260503184926 55 325 11.0 21.0 0.00 0.00 0.00 88 1012.6
20260503184428 55 262 9.0 19.0 0.00 0.00 0.00 88 1012.6
20260503183926 56 338 10.0 20.0 0.00 0.00 0.00 88 1012.8
20260503183429 56 315 10.0 20.0 0.00 0.00 0.00 88 1012.6
20260503182927 56 328 12.0 22.0 0.00 0.00 0.00 88 1012.8
20260503181923 56 351 10.0 24.0 0.00 0.00 0.00 87 1012.6
20260503181422 56 262 9.0 18.0 0.00 0.00 0.00 87 1012.5
20260503180927 56 235 10.0 20.0 0.00 0.00 0.00 87 1012.4
20260503175921 56 321 12.0 21.0 0.00 0.00 0.00 87 1012.1
20260503175422 56 9 12.0 21.0 0.00 0.00 0.00 87 1012.0
20260503174422 56 323 12.0 20.0 0.00 0.00 0.00 88 1011.8
20260503173919 57 249 12.0 22.0 0.00 0.00 0.00 88 1011.7
20260503173422 57 296 13.0 23.0 0.00 0.00 0.00 87 1011.6
20260503172920 57 338 12.0 23.0 0.00 0.00 0.00 88 1011.5
20260503172421 58 258 12.0 22.0 0.00 0.00 0.00 88 1011.3
20260503171919 58 282 12.0 21.0 0.00 0.00 0.00 88 1011.3
20260503171411 58 270 10.0 21.0 0.00 0.00 0.00 88 1011.4
20260503170916 58 284 10.0 20.0 0.00 0.00 0.00 88 1011.1
20260503170404 58 347 12.0 24.0 0.00 0.00 0.00 87 1010.9
20260503150856 61 280 10.0 18.0 0.00 0.00 0.00 83 1010.6
20260503131316 65 277 17.0 28.0 0.00 0.00 0.00 70 1009.2
20260503130814 65 290 17.0 28.0 0.00 0.00 0.00 71 1009.2
20260503130315 65 333 16.0 28.0 0.00 0.00 0.00 70 1009.0
20260503110759 68 284 15.0 32.0 0.00 0.00 0.00 71 1008.3
20260503110300 68 281 15.0 32.0 0.00 0.00 0.00 70 1008.3
20260503100243 71 289 12.0 24.0 0.00 0.00 0.00 67 1007.8
20260503090224 72 269 12.0 21.0 0.00 0.00 0.00 51 1007.3
20260503081226 72 267 10.0 20.0 0.00 0.00 0.00 48 1007.2
20260503080723 73 304 10.0 20.0 0.00 0.00 0.00 47 1007.1
20260503080218 73 240 10.0 19.0 0.00 0.00 0.00 46 1006.8
20260503072216 73 247 9.0 19.0 0.00 0.00 0.00 44 1006.5
20260503071715 72 250 8.0 17.0 0.00 0.00 0.00 44 1006.3
20260503071216 72 247 8.0 17.0 0.00 0.00 0.00 44 1006.5
20260503070718 72 252 9.0 21.0 0.00 0.00 0.00 45 1006.3
20260503070215 72 286 8.0 21.0 0.00 0.00 0.00 44 1006.4
20260503054704 71 271 7.0 17.0 0.00 0.00 0.00 41 1005.8
20260503054205 71 242 6.0 17.0 0.00 0.00 0.00 42 1005.7
20260503053704 71 310 6.0 14.0 0.00 0.00 0.00 42 1005.8
20260503053206 71 250 5.0 11.0 0.00 0.00 0.00 42 1005.7
20260503052705 71 246 4.0 12.0 0.00 0.00 0.00 43 1005.8
20260503052206 70 265 4.0 12.0 0.00 0.00 0.00 44 1005.7
20260503051706 70 281 5.0 13.0 0.00 0.00 0.00 44 1005.6
20260503051206 69 244 6.0 13.0 0.00 0.00 0.00 45 1005.4
20260503050705 69 245 6.0 13.0 0.00 0.00 0.00 46 1005.4
20260503050207 69 273 6.0 13.0 0.00 0.00 0.00 47 1005.4
20260503045708 69 272 6.0 13.0 0.00 0.00 0.00 48 1005.4
20260503045205 68 271 5.0 13.0 0.00 0.00 0.00 48 1005.4
20260503044705 68 229 5.0 10.0 0.00 0.00 0.00 50 1005.4
20260503044207 67 257 4.0 10.0 0.00 0.00 0.00 51 1005.3
20260503043706 67 229 5.0 10.0 0.00 0.00 0.00 52 1005.2
20260503043207 66 232 5.0 11.0 0.00 0.00 0.00 53 1005.4
20260503042705 66 246 5.0 13.0 0.00 0.00 0.00 53 1005.3
20260503042207 66 251 6.0 13.0 0.00 0.00 0.00 54 1005.3
20260503041707 65 249 6.0 12.0 0.00 0.00 0.00 54 1005.2
20260503041210 65 248 4.0 11.0 0.00 0.00 0.00 55 1005.2
20260503040706 65 245 5.0 10.0 0.00 0.00 0.00 55 1005.2
20260503035705 65 248 7.0 15.0 0.00 0.00 0.00 52 1005.2
20260503035204 66 258 7.0 12.0 0.00 0.00 0.00 50 1005.2
20260503035016 67 238 6.0 12.0 0.00 0.00 0.00 47 1005.2
20260503034205 67 271 5.0 11.0 0.00 0.00 0.00 43 1005.0
20260503034018 67 219 3.0 10.0 0.00 0.00 0.00 41 1004.9
20260503033205 67 273 2.0 6.0 0.00 0.00 0.00 40 1004.9
20260503032204 66 145 1.0 4.0 0.00 0.00 0.00 40 1004.7
20260503032013 66 163 1.0 5.0 0.00 0.00 0.00 41 1004.5
20260503031202 66 165 0.0 5.0 0.00 0.00 0.00 41 1004.5
20260503031015 66 185 0.0 5.0 0.00 0.00 0.00 41 1004.5
20260503030201 66 135 1.0 3.0 0.00 0.00 0.00 41 1004.5
20260503030011 66 135 2.0 8.0 0.00 0.00 0.00 41 1004.3
20260503025200 65 135 3.0 8.0 0.00 0.00 0.00 42 1004.0
20260503025010 65 130 3.0 8.0 0.00 0.00 0.00 44 1004.0
20260503024200 64 137 3.0 8.0 0.00 0.00 0.00 47 1004.0
20260503024009 63 142 3.0 7.0 0.00 0.00 0.00 49 1004.0
20260503023155 63 132 2.0 5.0 0.00 0.00 0.00 50 1004.0
20260503023007 63 134 2.0 5.0 0.00 0.00 0.00 51 1004.0
20260503022159 63 137 1.0 3.0 0.00 0.00 0.00 50 1004.2
20260503022006 63 138 1.0 3.0 0.00 0.00 0.00 50 1004.2
20260503021153 63 110 1.0 4.0 0.00 0.00 0.00 49 1004.0
20260503021002 63 110 1.0 4.0 0.00 0.00 0.00 49 1003.9
20260503020152 64 336 0.0 3.0 0.00 0.00 0.00 49 1003.9
20260503015643 64 331 1.0 3.0 0.00 0.00 0.00 48 1003.9
20260503014625 65 330 1.0 4.0 0.00 0.00 0.00 46 1004.2
20260503014127 65 329 2.0 5.0 0.00 0.00 0.00 45 1004.0
20260503013624 65 331 2.0 5.0 0.00 0.00 0.00 44 1004.2
20260503013124 66 330 1.0 4.0 0.00 0.00 0.00 43 1004.3
20260503012621 66 329 1.0 3.0 0.00 0.00 0.00 43 1004.4
20260503012111 66 329 2.0 7.0 0.00 0.00 0.00 42 1004.4
20260503011613 67 342 3.0 7.0 0.00 0.00 0.00 41 1004.5
20260503011114 67 317 3.0 7.0 0.00 0.00 0.00 40 1004.7
20260503010615 67 337 2.0 7.0 0.00 0.00 0.00 39 1004.7
20260503010113 68 303 2.0 8.0 0.00 0.00 0.00 38 1004.8
20260503005610 68 275 4.0 14.0 0.00 0.00 0.00 37 1004.9
20260503005105 68 237 5.0 14.0 0.00 0.00 0.00 37 1005.0
20260503004604 68 238 4.0 12.0 0.00 0.00 0.00 36 1005.2
20260503004107 68 261 5.0 12.0 0.00 0.00 0.00 36 1005.2
20260503003608 68 263 3.0 12.0 0.00 0.00 0.00 38 1005.2
20260503003106 69 212 1.0 4.0 0.00 0.00 0.00 37 1004.9
20260503002606 69 182 0.0 3.0 0.00 0.00 0.00 36 1004.8
20260503001105 70 148 2.0 5.0 0.00 0.00 0.00 35 1005.0
20260503000108 70 128 3.0 7.0 0.00 0.00 0.00 35 1004.8